Volver al catálogo

SL-8 R/B

ActivoLEO
NORAD 3577·ROCKET BODY·🇷🇺 Russia

Lanzado Nov 30, 1968 desde Plesetsk Cosmodrome

Loading…

Próximos Pases (próximas 24 horas)

TLE

ActualizadoSource: Space-Track

Época: Sep 14, 2026, 22:50 UTC

1 03577U 68106B   26257.95155905  .00000170  00000-0  47439-3 0  9992
2 03577  74.0509 212.5151 0034767 180.4948 239.6637 13.19143121781230

Sigue SL-8 R/B en tiempo real con AllMySat

Download on the App Store